Location: Jarocin
(51.9626°N, 17.5030°E)
Time: 22:40:45
(UTC+02:00)

ISS - Visible Passes

Search period start: 22 September 2018 00:00
Search period end: 02 October 2018 00:00
Orbit: 403 x 408 km, 51.6° (Epoch: 23 September)

Date Brightness Start Highest point End Pass type
(mag) Time Alt. Az. Time Alt. Az. Time Alt. Az.
22 Sep -1.6 20:28:05 10° S 20:28:53 14° S 20:28:53 14° S visible
23 Sep -1.7 19:37:28 10° SSE 19:38:48 12° SE 19:39:38 11° ESE visible
23 Sep -1.4 21:11:32 10° SW 21:12:21 16° SW 21:12:21 16° SW visible
24 Sep -2.9 20:19:57 10° SW 20:22:54 31° SSE 20:22:54 31° SSE visible
25 Sep -2.3 19:28:35 10° SSW 19:31:10 21° SE 19:33:18 13° E visible
25 Sep -2.4 21:04:01 10° WSW 21:06:00 32° WSW 21:06:00 32° WSW visible
26 Sep -3.5 20:12:14 10° SW 20:15:26 50° SSE 20:16:15 38° ESE visible
26 Sep -0.7 21:48:32 10° W 21:48:56 13° W 21:48:56 13° W visible
27 Sep -3.0 19:20:33 10° SW 19:23:36 36° SSE 19:26:26 12° E visible
27 Sep -3.0 20:56:37 10° W 20:59:06 48° WSW 20:59:06 48° WSW visible
28 Sep -3.9 20:04:42 10° WSW 20:08:00 71° SSE 20:09:12 35° E visible
28 Sep -0.9 21:41:11 10° W 21:41:52 15° W 21:41:52 15° W visible
29 Sep -3.5 19:12:51 10° WSW 19:16:05 56° SSE 19:19:14 11° E visible
29 Sep -3.2 20:49:12 10° W 20:51:54 56° W 20:51:54 56° W visible
30 Sep -3.9 19:57:14 10° W 20:00:32 85° S 20:01:54 33° E visible
30 Sep -0.9 21:33:44 10° W 21:34:34 16° W 21:34:34 16° W visible
01 Oct -3.8 19:05:17 10° WSW 19:08:34 76° S 19:11:53 10° E visible
01 Oct -3.3 20:41:46 10° W 20:44:32 59° WSW 20:44:32 59° WSW visible
